www.pogodaiklimat.ru

ПОГОДА в Лаконии, NH

  • Прогноз погоды в Лаконии
  • Монитор погоды в Лаконии
  • Климат в Лаконии

АРХИВ ПОГОДЫ в Лаконии

Время (UTC), дата Ветер
(напр.,м/с)
 
Видим.   Явления Облачность Т
(С)
Тd
(С)
f
(%)
Тe
(С)
Тes
(С)
Комфортность

P
(гПа)

Po
(гПа)
Тmin
(С)
Tmax
(С)
R
(мм)
SD
(см)
18:56 24.03 З  16 км    ясно  +8.9  -8.9  27  +6  +8    1014.1  992.3         
19:56 24.03 З  4
{8} 
16 км    ясно  +8.9  -8.9  27  +7  +10    1014.0  992.0         
20:56 24.03 З  16 км    ясно  +8.9  -7.8  30  +7  +9    1014.0  992.0         
21:56 24.03 ЮЗ  16 км    ясно  +7.2  -6.1  38  +6  +7    1013.9  992.3         
22:56 24.03   16 км    ясно  +4.4  -5.0  50  +4  +4    1014.4  992.6  +4.4  +10.0     
23:56 24.03 нст  16 км    ясно  +3.3  -5.0  54  +2  +2    1014.8  993.0         
00:56 25.03 З  16 км    ясно  +6.1  -6.1  41  +3  +3    1015.0  993.3         
01:56 25.03 З  16 км    ясно  +5.0  -5.0  48  +1  +1    1014.5  992.6         
02:56 25.03 ЮЗ  16 км    ясно  +5.6  -4.4  49  +1  +1    1014.2  992.6         
03:56 25.03 ЮЗ  16 км    10/10 1650 м  +5.6  -3.3  53  +1  +1    1014.6  992.6         
04:56 25.03 З  16 км    10/10 1500 м  +5.6  -3.3  53  +2  +2    1014.9  993.0  +2.2  +6.7     
05:56 25.03 СЗ  16 км    10/10 1380 м  +2.8  -2.8  67  -1  -1    1016.3  994.3         
06:56 25.03 СЗ  16 км  слабый дождь  10/10 1140 м  +1.7  -3.3  69  -3  -3    1016.6  994.6         
07:56 25.03 З  16 км  слабый дождь  10/10 1260 м  +1.1  -6.1  59  -3  -3    1017.1  995.3         
08:56 25.03 СЗ  3
{8} 
16 км    2/2 960 м  0.0  -6.7  61  -5  -5    1018.1  996.3         
09:56 25.03 СЗ  16 км    ясно  -1.7  -10.0  53  -6  -6    1019.2  997.3         
10:56 25.03 СЗ  16 км    ясно  -1.7  -12.2  45  -6  -6    1020.3  998.3  -1.7  +5.6     
11:56 25.03 З  16 км    ясно  -1.1  -13.9  37  -6  -5    1020.8  998.9         
12:56 25.03 З  16 км    ясно  -0.6  -14.4  34  -7  -5    1020.7  998.9         
13:56 25.03 З  16 км    ясно  0.0  -14.4  33  -5  -2    1020.5  998.6         
14:56 25.03 СЗ  6
{8} 
16 км    ясно  +1.1  -18.3  22  -4  -1    1020.5  998.3         
15:56 25.03 З  4
{9} 
16 км    ясно  +1.7  -17.2  23  -3  +5    1020.1  997.9         
16:56 25.03 З  7
{10} 
16 км    ясно  +2.8  -19.4  18  -2  0    1019.7  997.6  -1.7  +2.8     
17:56 25.03 З  6
{8} 
16 км    ясно  +3.3  -20.0  16  -1  +2    1019.2  997.3         
18:56 25.03 З  6
{9} 
16 км    ясно  +3.3  -20.0  16  -2  +1    1018.6  997.0         
19:56 25.03 З  16 км    ясно  +3.3  -20.0  16  -1  +2    1018.1  996.3         
20:56 25.03 СЗ  16 км    ясно  +3.3  -18.9  18  -1  +1    1018.2  996.3         
21:56 25.03 З  16 км    ясно  +2.2  -17.8  21  -1  -1    1018.7  996.6         
22:56 25.03 З  16 км    ясно  0.0  -12.8  37  -2  -2    1018.8  997.0  0.0  +3.9     
23:56 25.03   16 км    ясно  -2.8  -11.7  50  -3  -3    1019.8  997.9         
00:56 26.03   16 км    ясно  -3.9  -10.6  60  -4  -4    1020.4  998.3         
01:56 26.03   16 км    ясно  -3.9  -10.6  60  -4  -4    1020.9  998.9         
02:56 26.03   16 км    ясно  -4.4  -11.1  59  -5  -5    1021.5  999.6         
03:56 26.03   16 км    ясно  -5.6  -12.2  60  -6  -6    1021.7  999.6         
04:56 26.03 З  16 км    ясно  -6.1  -11.7  65  -9  -9    1022.4  1000.3  -6.1  0.0     
05:56 26.03 З  16 км    ясно  -6.1  -11.7  65  -9  -9    1022.8  1000.9         
06:56 26.03   16 км    ясно  -7.2  -11.7  70  -8  -8    1023.0  1000.9         
07:56 26.03   16 км    ясно  -8.3  -11.1  80  -9  -9    1023.3  1001.3         
08:56 26.03 З  16 км    ясно  -8.3  -12.2  73  -12  -12    1023.8  1001.6         
09:56 26.03 нст  16 км    ясно  -6.7  -12.8  62  -10  -10    1024.4  1002.3         
10:56 26.03 З  16 км    ясно  -3.3  -13.9  44  -8  -8    1025.6  1003.6  -8.9  -3.3     
12:56 26.03 З  16 км    ясно  -1.7  -14.4  37  -7  -4    1026.4  1004.3         
13:56 26.03 С  16 км    ясно  -0.6  -13.9  36  -6  -4    1026.6  1004.6         
14:56 26.03 З  6
{9} 
16 км    ясно  0.0  -16.1  29  -6  -3    1026.8  1004.6         
17:56 26.03 З  5
{8} 
16 км    ясно  +1.1  -16.1  26  -4  0    1025.9  1003.9         
18:56 26.03 СЗ  6
{8} 
16 км    ясно  +2.2  -16.7  23  -3  -1    1025.9  1003.6         
19:56 26.03 СЗ  7
{9} 
16 км    ясно  +2.2  -16.1  24  -3  -3    1025.8  1003.6         
20:56 26.03 З  16 км    ясно  +2.2  -16.1  24  -2  -1    1026.4  1004.3         

 

Местоположение метеостанции Laconia Municipal Airport: широта 43.5667 долгота -71.4167 высота над уровнем моря 166 м.

В архиве по умолчанию представлена погода в Лаконии за последние 1-2 суток. Обновление информации о фактической погоде в базе происходит ежечасно! Архивные данные за месяц целиком и за предыдущие месяцы Вы можете получить, выбрав интересующий диапазон дат из раскрывающегося списка и нажав кнопку "Ввод!".

Внимание! Архив погоды МЕТАР в базе сайта хранится не более 60 дней. Нет смысла пытаться выбрать более раннюю дату.

Внимание! Время в таблицах - всемирное. Для получения местного времени необходимо прибавить поправку, которая в Лаконии равна -5 ч.

Ветер - указаны скорость ветра в м/с и направление, откуда дует ветер: С - северный, СВ - северо-восточный, В - восточный, ЮВ - юго-восточный, Ю - южный, ЮЗ - юго-западный, З - западный, СЗ - северо-западный.
Видимость - горизонтальная дальность видимости в метрах или километрах. При видимости от 1 до 10 км при отсутствии осадков обычно наблюдается дымка, при ухудшении видимости до 1 км и менее - туман. В сухую погоду видимость может ухудшаться дымом, пылью или мглою.
Атмосферные явления - указаны явления, наблюдавшиеся в указанный момент времени.
Облачность - указаны через наклонную черту верхняя и нижняя облачность в баллах и высота нижней границы облаков в метрах. Внимание: облачность, как и прочие метеорологические величины в США измеряются автоматическими метеостанциями. Указанные значения в баллах носят условный характер и показывают процент времени, в течение которого, в среднем, лазерный луч высотомера отражался от облаков обратно.
T - Температура воздуха - температура, измеренная на высоте 2 м над землей.
Td - Температура точки росы - температура, при понижении до которой содержащийся в воздухе водяной пар достигнет насыщения.
f - Относительная влажность воздуха - влажноcть воздуха, измеренная на высоте 2 м над землей.
Te - Эффективная температура - температура, которую ощущает одетый по сезону человек в тени. Характеристика душности погоды. При расчете учитывается влияние влажности воздуха и скорости ветра на теплоощущения человека.
Tes - Эффективная температура на солнце - температура, которую ощущает человек, с поправкой на солнечный нагрев. Характеристика знойности погоды. Зависит от высоты солнца над горизонтом, облачности и скорости ветра. Ночью, в пасмурную погоду, а также при ветре 12 м/с и более поправка равна нулю.
P - Атмосферное давление - приведенное к уровню моря атмосферное давление.
Po - Атмосферное давление - измеренное на уровне метеостанции атмосферное давление.
Tmin - Минимальная температура - минимум температуры воздуха на высоте 2 м над землей.
Tmax - Максимальная температура - максимум температуры воздуха на высоте 2 м над землей.
R - Количество осадков - Количество выпавших осадков за 3 или 6 часов, мм.
SD - Снежный покров - Высота снежного покрова, см.